When you browse on this site, cookies collect data to enhance your experience and personalize the content and advertising you see.
Visit our Privacy Policy to learn more. By continuing to use the site, you agree to this use of cookies and data.
  • In Österreich
  • Länderverzeichnis
  • Für 7 Tage
  • Wassertemperatur
  • Satellitenkarten
  • Wetterkarte
  • News
  • Widgets
  • user-avatar
    Anmelden

    Stündliche Wetter Kweta

    Heute, 14 Dezember, Freitag

    Zeit Temperatur Niederschläge Wind Luftdruck Luftfeuchtigkeit
    00:00 +4°C° 0 mm 1 m/S 619 mmHg 37%
    01:00 +4°C° 0 mm 1 m/S 619 mmHg 38%
    02:00 +3°C° 0 mm 1 m/S 618 mmHg 38%
    03:00 +3°C° 0 mm 1 m/S 618 mmHg 39%
    04:00 +3°C° 0 mm 1 m/S 618 mmHg 38%
    05:00 +2°C° 0 mm 0 m/S 618 mmHg 37%
    06:00 +2°C° 0 mm 0 m/S 618 mmHg 36%
    07:00 +2°C° 0 mm 0 m/S 619 mmHg 35%
    08:00 +5°C° 0 mm 0 m/S 620 mmHg 29%
    09:00 +7°C° 0 mm 0 m/S 621 mmHg 24%
    10:00 +9°C° 0 mm 0 m/S 622 mmHg 18%
    11:00 +11°C° 0 mm 1 m/S 622 mmHg 17%
    12:00 +12°C° 0 mm 1 m/S 622 mmHg 15%
    13:00 +13°C° 0 mm 1 m/S 622 mmHg 14%
    14:00 +12°C° 0 mm 1 m/S 622 mmHg 15%
    15:00 +12°C° 0 mm 1 m/S 621 mmHg 16%
    16:00 +11°C° 0 mm 1 m/S 621 mmHg 16%
    17:00 +10°C° 0 mm 1 m/S 621 mmHg 19%
    18:00 +7°C° 0 mm 0 m/S 620 mmHg 22%
    19:00 +6°C° 0 mm 0 m/S 620 mmHg 24%
    20:00 +5°C° 0 mm 0 m/S 620 mmHg 25%
    21:00 +5°C° 0 mm 0 m/S 620 mmHg 25%
    22:00 +4°C° 0 mm 0 m/S 619 mmHg 26%
    23:00 +4°C° 0 mm 0 m/S 619 mmHg 26%

    Morgen, 15 Dezember, Samstag

    Zeit Temperatur Niederschläge Wind Luftdruck Luftfeuchtigkeit
    00:00 +3°C° 0 mm 0 m/S 619 mmHg 26%
    01:00 +3°C° 0 mm 0 m/S 619 mmHg 26%
    02:00 +2°C° 0 mm 0 m/S 618 mmHg 26%
    03:00 +2°C° 0 mm 0 m/S 618 mmHg 26%
    04:00 +2°C° 0 mm 0 m/S 618 mmHg 26%
    05:00 +2°C° 0 mm 0 m/S 618 mmHg 25%
    06:00 +2°C° 0 mm 0 m/S 618 mmHg 25%
    07:00 +2°C° 0 mm 0 m/S 619 mmHg 24%
    08:00 +5°C° 0 mm 0 m/S 620 mmHg 20%
    09:00 +7°C° 0 mm 0 m/S 621 mmHg 16%
    10:00 +10°C° 0 mm 0 m/S 623 mmHg 13%
    11:00 +12°C° 0 mm 1 m/S 622 mmHg 12%
    12:00 +13°C° 0 mm 1 m/S 622 mmHg 11%
    13:00 +13°C° 0 mm 1 m/S 622 mmHg 11%
    14:00 +13°C° 0 mm 1 m/S 622 mmHg 12%
    15:00 +12°C° 0 mm 1 m/S 621 mmHg 13%
    16:00 +12°C° 0 mm 1 m/S 621 mmHg 15%
    17:00 +10°C° 0 mm 1 m/S 621 mmHg 17%
    18:00 +8°C° 0 mm 1 m/S 621 mmHg 20%
    19:00 +6°C° 0 mm 0 m/S 620 mmHg 22%
    20:00 +5°C° 0 mm 0 m/S 620 mmHg 22%
    21:00 +5°C° 0 mm 0 m/S 620 mmHg 21%
    22:00 +4°C° 0 mm 0 m/S 620 mmHg 21%
    23:00 +4°C° 0 mm 0 m/S 619 mmHg 20%

    übermorgen, 16 Dezember, Sonntag

    Zeit Temperatur Niederschläge Wind Luftdruck Luftfeuchtigkeit
    00:00 +3°C° 0 mm 0 m/S 619 mmHg 19%
    01:00 +4°C° 0 mm 1 m/S 619 mmHg 19%
    02:00 +4°C° 0 mm 1 m/S 619 mmHg 18%
    03:00 +3°C° 0 mm 1 m/S 618 mmHg 18%
    04:00 +3°C° 0 mm 1 m/S 618 mmHg 18%
    05:00 +3°C° 0 mm 1 m/S 618 mmHg 18%
    06:00 +3°C° 0 mm 1 m/S 619 mmHg 18%
    07:00 +3°C° 0 mm 1 m/S 619 mmHg 19%
    08:00 +6°C° 0 mm 1 m/S 621 mmHg 16%
    09:00 +9°C° 0 mm 1 m/S 622 mmHg 14%
    10:00 +11°C° 0 mm 1 m/S 623 mmHg 12%
    11:00 +12°C° 0 mm 1 m/S 623 mmHg 11%
    12:00 +13°C° 0 mm 1 m/S 623 mmHg 10%
    13:00 +14°C° 0 mm 1 m/S 622 mmHg 9%
    14:00 +13°C° 0 mm 1 m/S 622 mmHg 10%
    15:00 +13°C° 0 mm 1 m/S 622 mmHg 10%
    16:00 +12°C° 0 mm 1 m/S 621 mmHg 11%
    17:00 +10°C° 0 mm 1 m/S 621 mmHg 12%
    18:00 +9°C° 0 mm 1 m/S 621 mmHg 13%
    19:00 +6°C° 0 mm 0 m/S 620 mmHg 14%
    20:00 +5°C° 0 mm 0 m/S 620 mmHg 14%
    21:00 +5°C° 0 mm 0 m/S 620 mmHg 14%
    22:00 +4°C° 0 mm 0 m/S 620 mmHg 14%
    23:00 +4°C° 0 mm 0 m/S 619 mmHg 14%

    17 Dezember, Montag

    Zeit Temperatur Niederschläge Wind Luftdruck Luftfeuchtigkeit
    00:00 +3°C° 0 mm 0 m/S 619 mmHg 14%
    01:00 +3°C° 0 mm 0 m/S 619 mmHg 14%
    02:00 +3°C° 0 mm 0 m/S 618 mmHg 14%
    03:00 +3°C° 0 mm 1 m/S 618 mmHg 14%
    04:00 +3°C° 0 mm 1 m/S 618 mmHg 13%
    05:00 +3°C° 0 mm 1 m/S 618 mmHg 13%
    06:00 +3°C° 0 mm 1 m/S 618 mmHg 13%
    07:00 +3°C° 0 mm 1 m/S 619 mmHg 13%
    08:00 +6°C° 0 mm 1 m/S 620 mmHg 11%
    09:00 +8°C° 0 mm 0 m/S 622 mmHg 8%
    10:00 +11°C° 0 mm 0 m/S 623 mmHg 6%
    11:00 +13°C° 0 mm 1 m/S 623 mmHg 6%
    12:00 +14°C° 0 mm 1 m/S 622 mmHg 6%
    13:00 +14°C° 0 mm 1 m/S 622 mmHg 6%
    14:00 +14°C° 0 mm 1 m/S 622 mmHg 7%
    15:00 +13°C° 0 mm 1 m/S 621 mmHg 7%
    16:00 +12°C° 0 mm 1 m/S 621 mmHg 8%
    17:00 +11°C° 0 mm 1 m/S 620 mmHg 10%
    18:00 +9°C° 0 mm 1 m/S 620 mmHg 11%
    19:00 +7°C° 0 mm 1 m/S 620 mmHg 12%
    20:00 +7°C° 0 mm 1 m/S 620 mmHg 13%
    21:00 +6°C° 0 mm 1 m/S 619 mmHg 13%
    22:00 +6°C° 0 mm 1 m/S 619 mmHg 13%
    23:00 +4°C° 0 mm 0 m/S 619 mmHg 13%

    18 Dezember, Dienstag

    Zeit Temperatur Niederschläge Wind Luftdruck Luftfeuchtigkeit
    00:00 +4°C° 0 mm 0 m/S 619 mmHg 13%
    01:00 +4°C° 0 mm 0 m/S 618 mmHg 13%
    02:00 +4°C° 0 mm 1 m/S 618 mmHg 13%
    03:00 +4°C° 0 mm 1 m/S 618 mmHg 13%
    04:00 +4°C° 0 mm 1 m/S 617 mmHg 13%
    05:00 +4°C° 0 mm 1 m/S 618 mmHg 13%
    06:00 +3°C° 0 mm 0 m/S 618 mmHg 13%
    07:00 +3°C° 0 mm 0 m/S 618 mmHg 12%
    08:00 +6°C° 0 mm 0 m/S 620 mmHg 10%
    09:00 +9°C° 0 mm 0 m/S 621 mmHg 8%
    10:00 +13°C° 0 mm 0 m/S 623 mmHg 6%
    11:00 +14°C° 0 mm 1 m/S 622 mmHg 5%
    12:00 +15°C° 0 mm 1 m/S 622 mmHg 5%
    13:00 +16°C° 0 mm 1 m/S 621 mmHg 4%
    14:00 +15°C° 0 mm 1 m/S 621 mmHg 5%
    15:00 +14°C° 0 mm 1 m/S 620 mmHg 6%
    16:00 +13°C° 0 mm 1 m/S 619 mmHg 7%
    17:00 +10°C° 0 mm 0 m/S 619 mmHg 8%
    18:00 +9°C° 0 mm 0 m/S 619 mmHg 9%
    19:00 +7°C° 0 mm 0 m/S 618 mmHg 9%
    20:00 +7°C° 0 mm 0 m/S 618 mmHg 9%
    21:00 +6°C° 0 mm 0 m/S 617 mmHg 9%
    22:00 +6°C° 0 mm 0 m/S 617 mmHg 9%
    23:00 +5°C° 0 mm 0 m/S 617 mmHg 9%

    19 Dezember, Mittwoch

    Zeit Temperatur Niederschläge Wind Luftdruck Luftfeuchtigkeit
    00:00 +5°C° 0 mm 0 m/S 616 mmHg 9%
    01:00 +4°C° 0 mm 0 m/S 616 mmHg 9%
    02:00 +4°C° 0 mm 0 m/S 616 mmHg 9%
    03:00 +4°C° 0 mm 0 m/S 615 mmHg 10%
    04:00 +4°C° 0 mm 1 m/S 615 mmHg 11%
    05:00 +4°C° 0 mm 1 m/S 615 mmHg 10%
    06:00 +5°C° 0 mm 1 m/S 616 mmHg 8%
    07:00 +5°C° 0 mm 1 m/S 616 mmHg 7%
    08:00 +8°C° 0 mm 1 m/S 618 mmHg 6%
    09:00 +11°C° 0 mm 1 m/S 619 mmHg 5%
    10:00 +14°C° 0 mm 2 m/S 621 mmHg 4%
    11:00 +15°C° 0 mm 2 m/S 620 mmHg 4%
    12:00 +16°C° 0 mm 2 m/S 620 mmHg 4%
    13:00 +16°C° 0 mm 3 m/S 620 mmHg 4%
    14:00 +14°C° 0 mm 3 m/S 619 mmHg 5%
    15:00 +15°C° 0 mm 2 m/S 619 mmHg 5%
    16:00 +14°C° 0 mm 2 m/S 619 mmHg 6%
    17:00 +12°C° 0 mm 2 m/S 619 mmHg 7%
    18:00 +10°C° 0 mm 1 m/S 619 mmHg 8%
    19:00 +9°C° 0 mm 1 m/S 618 mmHg 9%
    20:00 +8°C° 0 mm 1 m/S 618 mmHg 9%
    21:00 +8°C° 0 mm 1 m/S 618 mmHg 9%
    22:00 +7°C° 0 mm 1 m/S 618 mmHg 9%
    23:00 +7°C° 0 mm 1 m/S 618 mmHg 10%
    Mehr zeigen